| time (UTC) | temp F | wind direction | speed MPH | gust MPH | rain 1hr in | rain 24hr in | rain mn in | humidity % | barometer mb |
| 20260508032631 | 63 | 211 | 0.0 | 0.0 | 0.00 | 0.00 | 0.00 | 13 | 1010.7 |
| 20260508031611 | 63 | 211 | 0.0 | 0.0 | 0.00 | 0.00 | 0.00 | 13 | 1010.5 |
| 20260508025508 | 65 | 211 | 0.0 | 0.0 | 0.00 | 0.00 | 0.00 | 12 | 1010.4 |
| 20260508024503 | 66 | 211 | 0.0 | 0.0 | 0.00 | 0.00 | 0.00 | 12 | 1010.2 |
| 20260508023507 | 67 | 211 | 0.0 | 0.0 | 0.00 | 0.00 | 0.00 | 11 | 1010.0 |
| 20260508022500 | 69 | 211 | 0.0 | 0.0 | 0.00 | 0.00 | 0.00 | 11 | 1009.9 |
| 20260508020345 | 71 | 211 | 0.0 | 0.0 | 0.00 | 0.00 | 0.00 | 14 | 1009.7 |
| 20260508015323 | 72 | 211 | 0.0 | 0.0 | 0.00 | 0.00 | 0.00 | 14 | 1009.7 |
| 20260508014251 | 73 | 211 | 0.0 | 0.0 | 0.00 | 0.00 | 0.00 | 13 | 1009.5 |
| 20260508013316 | 73 | 211 | 0.0 | 0.0 | 0.00 | 0.00 | 0.00 | 13 | 1009.3 |
| 20260508011134 | 74 | 211 | 0.0 | 0.0 | 0.00 | 0.00 | 0.00 | 13 | 1009.1 |
| 20260508010139 | 75 | 211 | 0.0 | 1.0 | 0.00 | 0.00 | 0.00 | 12 | 1009.1 |
| 20260508005151 | 75 | 211 | 0.0 | 0.0 | 0.00 | 0.00 | 0.00 | 13 | 1009.1 |
| 20260508004118 | 75 | 211 | 0.0 | 3.0 | 0.00 | 0.00 | 0.00 | 12 | 1009.1 |
| 20260508001946 | 75 | 163 | 0.0 | 0.0 | 0.00 | 0.00 | 0.00 | 12 | 1009.2 |
| 20260508000933 | 75 | 163 | 0.0 | 0.0 | 0.00 | 0.00 | 0.00 | 11 | 1009.3 |
| 20260507235929 | 75 | 165 | 1.0 | 7.0 | 0.00 | 0.00 | 0.00 | 12 | 1009.3 |
| 20260507234928 | 75 | 157 | 1.0 | 6.0 | 0.00 | 0.00 | 0.00 | 12 | 1009.4 |
| 20260507233953 | 75 | 159 | 0.0 | 9.0 | 0.00 | 0.00 | 0.00 | 12 | 1009.4 |
| 20260507232939 | 75 | 157 | 0.0 | 0.0 | 0.00 | 0.00 | 0.00 | 12 | 1009.7 |
| 20260507230815 | 75 | 140 | 0.0 | 2.0 | 0.00 | 0.00 | 0.00 | 11 | 1009.8 |
| 20260507225824 | 74 | 140 | 1.0 | 0.0 | 0.00 | 0.00 | 0.00 | 12 | 1010.0 |
| 20260507224848 | 74 | 192 | 2.0 | 0.0 | 0.00 | 0.00 | 0.00 | 13 | 1010.2 |
| 20260507223855 | 74 | 150 | 0.0 | 10.0 | 0.00 | 0.00 | 0.00 | 13 | 1010.2 |
| 20260507222835 | 74 | 144 | 2.0 | 6.0 | 0.00 | 0.00 | 0.00 | 14 | 1010.3 |
| 20260507221825 | 74 | 165 | 0.0 | 4.0 | 0.00 | 0.00 | 0.00 | 14 | 1010.5 |
| 20260507220751 | 73 | 137 | 1.0 | 6.0 | 0.00 | 0.00 | 0.00 | 13 | 1010.7 |
| 20260507215738 | 73 | 159 | 1.0 | 0.0 | 0.00 | 0.00 | 0.00 | 14 | 1010.8 |
| 20260507214804 | 73 | 148 | 4.0 | 9.0 | 0.00 | 0.00 | 0.00 | 14 | 1011.0 |
| 20260507213814 | 73 | 151 | 3.0 | 9.0 | 0.00 | 0.00 | 0.00 | 15 | 1011.2 |
| 20260507211625 | 72 | 119 | 0.0 | 6.0 | 0.00 | 0.00 | 0.00 | 16 | 1011.9 |
| 20260507210600 | 72 | 144 | 2.0 | 8.0 | 0.00 | 0.00 | 0.00 | 17 | 1012.2 |
| 20260507205557 | 71 | 150 | 0.0 | 8.0 | 0.00 | 0.00 | 0.00 | 16 | 1012.3 |
| 20260507204530 | 70 | 144 | 0.0 | 0.0 | 0.00 | 0.00 | 0.00 | 19 | 1012.7 |
| 20260507203531 | 70 | 137 | 0.0 | 5.0 | 0.00 | 0.00 | 0.00 | 19 | 1012.7 |
| 20260507201444 | 70 | 159 | 0.0 | 6.0 | 0.00 | 0.00 | 0.00 | 20 | 1013.3 |
| 20260507200411 | 70 | 139 | 0.0 | 0.0 | 0.00 | 0.00 | 0.00 | 20 | 1013.4 |
| 20260507194211 | 69 | 139 | 1.0 | 4.0 | 0.00 | 0.00 | 0.00 | 22 | 1013.8 |
| 20260507193151 | 68 | 164 | 0.0 | 3.0 | 0.00 | 0.00 | 0.00 | 23 | 1014.0 |
| 20260507192120 | 68 | 159 | 0.0 | 2.0 | 0.00 | 0.00 | 0.00 | 23 | 1014.3 |
| 20260507185956 | 67 | 296 | 0.0 | 0.0 | 0.00 | 0.00 | 0.00 | 26 | 1014.6 |
| 20260507184950 | 66 | 297 | 0.0 | 0.0 | 0.00 | 0.00 | 0.00 | 26 | 1014.9 |
| 20260507184012 | 65 | 248 | 0.0 | 3.0 | 0.00 | 0.00 | 0.00 | 27 | 1015.2 |
| 20260507174457 | 64 | 141 | 0.0 | 4.0 | 0.00 | 0.00 | 0.00 | 27 | 1016.2 |
| 20260507173505 | 64 | 140 | 0.0 | 0.0 | 0.00 | 0.00 | 0.00 | 29 | 1016.2 |
| 20260507172443 | 63 | 140 | 0.0 | 0.0 | 0.00 | 0.00 | 0.00 | 31 | 1016.5 |
| 20260507171436 | 62 | 155 | 0.0 | 4.0 | 0.00 | 0.00 | 0.00 | 31 | 1016.7 |
| 20260507170416 | 62 | 304 | 0.0 | 0.0 | 0.00 | 0.00 | 0.00 | 29 | 1016.9 |
| 20260507165342 | 61 | 355 | 0.0 | 2.0 | 0.00 | 0.00 | 0.00 | 31 | 1016.9 |
| 20260507164307 | 60 | 348 | 0.0 | 0.0 | 0.00 | 0.00 | 0.00 | 34 | 1017.0 |
| 20260507163331 | 59 | 323 | 0.0 | 0.0 | 0.00 | 0.00 | 0.00 | 36 | 1017.1 |
| 20260507162345 | 58 | 5 | 0.0 | 0.0 | 0.00 | 0.00 | 0.00 | 37 | 1017.1 |
| 20260507161401 | 57 | 0 | 0.0 | 2.0 | 0.00 | 0.00 | 0.00 | 39 | 1017.2 |
| 20260507160400 | 56 | 322 | 0.0 | 5.0 | 0.00 | 0.00 | 0.00 | 40 | 1017.3 |
| 20260507154223 | 54 | 0 | 0.0 | 3.0 | 0.00 | 0.00 | 0.00 | 44 | 1017.4 |
| 20260507153213 | 53 | 346 | 0.0 | 6.0 | 0.00 | 0.00 | 0.00 | 45 | 1017.6 |
| 20260507152159 | 52 | 300 | 0.0 | 0.0 | 0.00 | 0.00 | 0.00 | 48 | 1017.6 |
| 20260507151127 | 52 | 346 | 0.0 | 0.0 | 0.00 | 0.00 | 0.00 | 51 | 1017.7 |
| 20260507145001 | 51 | 348 | 0.0 | 5.0 | 0.00 | 0.00 | 0.00 | 54 | 1017.9 |
| 20260507142820 | 49 | 337 | 0.0 | 4.0 | 0.00 | 0.00 | 0.00 | 56 | 1018.0 |
| 20260507141807 | 49 | 344 | 0.0 | 5.0 | 0.00 | 0.00 | 0.00 | 57 | 1017.9 |
| 20260507140746 | 48 | 316 | 0.0 | 9.0 | 0.00 | 0.00 | 0.00 | 58 | 1017.8 |
| 20260507135716 | 48 | 344 | 1.0 | 9.0 | 0.00 | 0.00 | 0.00 | 58 | 1017.8 |
| 20260507133553 | 47 | 5 | 0.0 | 12.0 | 0.00 | 0.00 | 0.00 | 60 | 1017.9 |
| 20260507132551 | 46 | 340 | 1.0 | 12.0 | 0.00 | 0.00 | 0.00 | 60 | 1017.8 |
| 20260507131607 | 45 | 348 | 0.0 | 6.0 | 0.00 | 0.00 | 0.00 | 63 | 1017.8 |
| 20260507130632 | 45 | 355 | 0.0 | 4.0 | 0.00 | 0.00 | 0.00 | 64 | 1017.9 |
| 20260507125610 | 44 | 340 | 0.0 | 6.0 | 0.00 | 0.00 | 0.00 | 65 | 1017.8 |
| 20260507124617 | 43 | 329 | 0.0 | 6.0 | 0.00 | 0.00 | 0.00 | 66 | 1017.9 |
| 20260507123638 | 43 | 323 | 0.0 | 4.0 | 0.00 | 0.00 | 0.00 | 66 | 1017.8 |
| 20260507122622 | 43 | 341 | 0.0 | 0.0 | 0.00 | 0.00 | 0.00 | 66 | 1017.8 |
| 20260507121647 | 43 | 319 | 0.0 | 2.0 | 0.00 | 0.00 | 0.00 | 65 | 1017.7 |
| 20260507120612 | 42 | 313 | 0.0 | 0.0 | 0.00 | 0.00 | 0.00 | 65 | 1017.5 |
| 20260507115636 | 42 | 355 | 0.0 | 0.0 | 0.00 | 0.00 | 0.00 | 63 | 1017.6 |
| 20260507114616 | 42 | 355 | 0.0 | 0.0 | 0.00 | 0.00 | 0.00 | 61 | 1017.7 |
| 20260507112437 | 43 | 355 | 0.0 | 0.0 | 0.00 | 0.00 | 0.00 | 57 | 1017.9 |
| 20260507110342 | 42 | 316 | 0.0 | 0.0 | 0.00 | 0.00 | 0.00 | 52 | 1017.7 |
| 20260507105405 | 43 | 315 | 0.0 | 0.0 | 0.00 | 0.00 | 0.00 | 47 | 1017.8 |
| 20260507104418 | 43 | 315 | 0.0 | 0.0 | 0.00 | 0.00 | 0.00 | 44 | 1017.7 |
| 20260507103416 | 43 | 315 | 0.0 | 0.0 | 0.00 | 0.00 | 0.00 | 44 | 1017.8 |
| 20260507102355 | 43 | 315 | 0.0 | 0.0 | 0.00 | 0.00 | 0.00 | 42 | 1017.7 |
| 20260507095054 | 45 | 12 | 0.0 | 2.0 | 0.00 | 0.00 | 0.00 | 38 | 1017.5 |
| 20260507094032 | 45 | 318 | 0.0 | 1.0 | 0.00 | 0.00 | 0.00 | 38 | 1017.5 |
| 20260507093015 | 46 | 316 | 0.0 | 0.0 | 0.00 | 0.00 | 0.00 | 36 | 1017.5 |
| 20260507091956 | 47 | 312 | 0.0 | 0.0 | 0.00 | 0.00 | 0.00 | 35 | 1017.5 |
| 20260507090956 | 47 | 310 | 2.0 | 8.0 | 0.00 | 0.00 | 0.00 | 36 | 1017.3 |
| 20260507085950 | 46 | 291 | 4.0 | 8.0 | 0.00 | 0.00 | 0.00 | 35 | 1017.5 |
| 20260507084922 | 46 | 321 | 0.0 | 3.0 | 0.00 | 0.00 | 0.00 | 35 | 1017.5 |
| 20260507083903 | 47 | 40 | 3.0 | 8.0 | 0.00 | 0.00 | 0.00 | 35 | 1017.3 |
| 20260507082918 | 46 | 294 | 3.0 | 7.0 | 0.00 | 0.00 | 0.00 | 35 | 1017.1 |
| 20260507080747 | 47 | 125 | 3.0 | 9.0 | 0.00 | 0.00 | 0.00 | 34 | 1016.8 |
| 20260507075754 | 48 | 292 | 7.0 | 11.0 | 0.00 | 0.00 | 0.00 | 33 | 1016.6 |
| 20260507073626 | 50 | 287 | 4.0 | 10.0 | 0.00 | 0.00 | 0.00 | 31 | 1016.5 |
| 20260507072556 | 50 | 282 | 5.0 | 10.0 | 0.00 | 0.00 | 0.00 | 30 | 1016.5 |
| 20260507071612 | 50 | 289 | 5.0 | 10.0 | 0.00 | 0.00 | 0.00 | 30 | 1016.3 |
| 20260507064357 | 50 | 287 | 6.0 | 9.0 | 0.00 | 0.00 | 0.00 | 32 | 1016.3 |
| 20260507063336 | 50 | 309 | 4.0 | 9.0 | 0.00 | 0.00 | 0.00 | 32 | 1016.3 |
| 20260507062357 | 50 | 277 | 4.0 | 7.0 | 0.00 | 0.00 | 0.00 | 32 | 1016.3 |
| 20260507061404 | 51 | 278 | 5.0 | 8.0 | 0.00 | 0.00 | 0.00 | 32 | 1016.1 |
| 20260507060409 | 52 | 288 | 7.0 | 10.0 | 0.00 | 0.00 | 0.00 | 32 | 1016.1 |
| 20260507055404 | 52 | 290 | 6.0 | 10.0 | 0.00 | 0.00 | 0.00 | 32 | 1015.9 |
| 20260507054410 | 52 | 292 | 6.0 | 10.0 | 0.00 | 0.00 | 0.00 | 32 | 1015.9 |
| 20260507052235 | 53 | 279 | 5.0 | 8.0 | 0.00 | 0.00 | 0.00 | 33 | 1015.7 |
| 20260507051208 | 54 | 303 | 4.0 | 7.0 | 0.00 | 0.00 | 0.00 | 34 | 1015.6 |
| 20260507045035 | 54 | 279 | 5.0 | 9.0 | 0.00 | 0.00 | 0.00 | 38 | 1015.2 |
| 20260507044042 | 54 | 295 | 4.0 | 7.0 | 0.00 | 0.00 | 0.00 | 38 | 1015.1 |
| 20260507041857 | 54 | 286 | 3.0 | 7.0 | 0.00 | 0.00 | 0.00 | 43 | 1014.8 |
| 20260507040840 | 55 | 300 | 5.0 | 7.0 | 0.00 | 0.00 | 0.00 | 43 | 1014.6 |
| 20260507035819 | 56 | 331 | 4.0 | 6.0 | 0.00 | 0.00 | 0.00 | 42 | 1014.3 |
| 20260507034749 | 57 | 321 | 4.0 | 7.0 | 0.00 | 0.00 | 0.00 | 42 | 1014.0 |
| 20260507033731 | 56 | 300 | 3.0 | 6.0 | 0.00 | 0.00 | 0.00 | 43 | 1013.9 |